Location: Claremont
(33.9858°S, 18.4575°E)
Time: 11:03:08
(UTC+00:00)

Ariane Rocket - Pass Details

Date: 03 March 2021
Orbit: 759 x 771 km, 98.7° (Epoch: 21 April)

Event Time Altitude Azimuth Distance (km) Brightness Sun altitude
Rises 19:53:56 0° 171° (S) 3,264 6.6 -30.6°
Reaches altitude 10° 19:56:16 10° 173° (S) 2,333 5.8 -31.0°
Enters shadow 19:59:35 40° 186° (S) 1,136 4.0 -31.6°
